1st Responders/1st Detectors/Storm Spotters Weather Summary for Christian County, KY

Forecast Maps


Reg. NEXRAD Animation


National Fire Danger: Day 1 & 2 Map

Current NWS Watch/Warnings

SPC Convective Day 1 Outlook


Day 2 Outlook

(Click images to enlarge|Page will refresh every 5 minutes)
UK Ag. Weather Center Desktop Severe Weather Service[HERE]
Christian County, KY Hazardous Weather Outlook Webcast
(9 AM to 9 PM Mon-Fri)
[Fast]
[Dial-up]


UKAWC 1st Detectors/1st Responders Precision Weather Forecast For CHRISTIAN County, Kentucky
(based on the NWS County Digital Forecast)

ISSUED AT 19:00 UTC ON SUNDAY OCT 22 2017
DAY SUNDAY
CDT 3HR 3P 4P 5P 6P
MAX/MIN -- -- -- 77°
TEMP 76° 76° 74° 72°
SKY COVER 77% 90% 89% 88%
Clouds
DEW PT 63° 63° 63° 63°
RH 61% 61% 66% 70%
POP 12HR -- -- -- --
RAIN/SNOW (liq.equ) -- -- -- --
SNOWFALL -- -- -- --
WIND SPEED(MPH) 14 13 10 8
WIND Gust(MPH) 22 21 16 14
WIND DIR S S S S
DEW -- -- -- Lgt Dew
HeatIndex 76 76 74 72
Rain Showers Chance Chance Chance Likely
Thunder Storm Isolated Isolated Isolated Isolated
WIND CHILL -- -- -- --
SPRAY COND
DRY COND
LIVESTOCK COLDSTRESS
LIVESTOCK HEATSTRESS 72.31 72.31 71.16 69.82



DAY MONDAY TUESDAY WEDNESDAY THURSDAY FRIDAY SATURDAY
CDT 6HR 7P 8P 9P 10P 11P MIDN 1A 2A 3A 4A 5A 6A 7A 8A 9A 10A 11A NOON 1P 2P 3P 4P 5P 6P 7P 8P 9P 10P 11P MIDN 1A 2A 4A 7A 10A 1P 4P 7P 1A 7A 1P 7P 1A 7A 1P 7P 1A 7A 1P 7P 1A 7A 1P 7P
MAX/MIN -- -- -- -- -- -- -- -- -- -- -- -- 56° -- -- -- -- -- -- -- -- -- -- 63° -- -- -- -- -- -- -- -- -- 45° -- -- 58° -- -- 38° 56° -- -- 40° 65° -- -- 49° 65° -- -- 40° 54° --
TEMP 68° 67° 65° 63° 63° 61° 61° 59° 58° 58° 56° 56° 56° 56° 58° 58° 58° 58° 59° 61° 63° 63° 61° 58° 56° 54° 54° 52° 52° 50° 50° 49° 47° 45° 54° 58° 56° 49° 40° 38° 54° 49° 45° 43° 65° 59° 52° 50° 65° 54° 45° 40° 54° 45°
SKY COVER 100% 100% 99% 99% 98% 98% 97% 97% 98% 98% 98% 99% 99% 97% 96% 94% 92% 91% 89% 81% 72% 64% 55% 47% 38% 40% 42% 44% 46% 48% 50% 46% 39% 28% 32% 36% 44% 51% 35% 23% 37% 35% 12% 5% 5% 5% 11% 37% 70% 65% 76% 65% 60% 42%
Clouds
DEW PT 63° 63° 63° 61° 61° 59° 58° 58° 58° 56° 56° 56° 54° 54° 54° 54° 54° 54° 54° 54° 52° 52° 50° 49° 49° 47° 45° 43° 43° 43° 43° 43° 43° 40° 40° 36° 34° 34° 34° 32° 34° 36° 36° 36° 41° 43° 43° 43° 45° 43° 38° 36° 36° 34°
RH 81% 87% 93% 93% 93% 92% 92% 93% 96% 96% 96% 99% 96% 93% 86% 86% 83% 83% 80% 77% 69% 67% 69% 71% 77% 74% 71% 71% 73% 76% 76% 79% 82% 79% 61% 43% 43% 58% 75% 81% 44% 58% 70% 79% 42% 55% 68% 77% 49% 63% 76% 85% 52% 65%
POP 12HR 63% -- -- -- -- -- -- -- -- -- -- -- 88% -- -- -- -- -- -- -- -- -- -- -- 67% -- -- -- -- -- -- -- -- 21% -- -- -- 6% -- 2% -- 3% -- 2% -- 1% -- 4% -- 43% -- 42% -- 35%
RAIN/SNOW (liq.equ) 0.04in -- -- -- -- -- 0.61in -- -- -- -- -- 0.72in -- -- -- -- -- 0.38in -- -- -- -- -- 0.29in -- -- -- -- -- 0.06in -- -- 0.00in -- 0.00in -- 0.00in -- -- -- -- -- -- -- -- -- -- -- -- -- -- -- --
SNOWFALL 0in -- -- -- -- -- 0in -- -- -- -- -- 0in -- -- -- -- -- 0in -- -- -- -- -- 0in -- -- -- -- -- 0in -- -- 0in -- 0in -- 0in -- -- -- -- -- -- -- -- -- -- -- -- -- -- -- --
WIND SPEED(MPH) 7 7 7 6 6 6 6 6 6 6 6 6 6 7 7 7 8 8 8 9 9 9 9 8 7 7 7 7 7 7 7 7 7 7 14 14 10 7 7 7 10 7 7 7 10 9 10 9 9 7 7 7 8 7
WIND DIR S S S S SW SW W W NW NW NW NW N N NW NW NW NW NW NW NW NW NW W W W W W W W W W W W NW W W NW W W W SW SW S S S S S SW W W W NW NW
HeatIndex 68 67 65 63 63 61 61 59 58 58 56 56 56 56 58 58 58 58 59 61 63 63 61 58 56 54 54 52 52 50 50 49 47 45 54 58 56 49 36 32 54 49 41 38 65 59 52 50 65 54 45 36 54 45
Rain Showers Definite Definite Definite Definite Definite Definite Definite Definite Definite Likely Likely Likely Likely Likely Likely Likely Likely Likely Chance Chance Chance Chance Chance Chance Slight Chance Slight Chance Slight Chance Slight Chance Slight Chance Slight Chance Slight Chance Slight Chance Slight Chance -- -- -- -- -- -- -- -- -- -- -- -- -- -- Slight Chance Chance Chance Chance Chance Chance Slight Chance
Thunder Storm -- -- -- -- -- -- -- -- -- -- -- -- -- -- -- -- -- -- -- -- -- -- -- -- -- -- -- -- -- -- -- -- -- -- -- -- -- -- -- -- -- -- -- -- -- -- -- -- -- -- -- -- -- --
WIND CHILL -- -- -- -- -- -- -- -- -- -- -- -- -- -- -- -- -- -- -- -- -- -- -- -- -- -- -- -- -- -- -- -- -- 41° -- -- -- -- 35° 33° -- -- 41° 39° -- -- -- -- -- -- 41° 35° -- 41°
SPRAY COND
DRY COND
LIVESTOCK COLDSTRESS
LIVESTOCK HEATSTRESS 67.04 66.41 64.76 62.84 62.84 60.90 60.90 58.99 58.02 58.02 56.06 56.02 56.06 56.11 58.06 58.06 58.07 58.07 58.98 60.72 62.28 62.24 60.62 58.13 56.35 54.69 54.77 53.08 53.01 51.16 51.16 50.13 48.17 46.59 55.03 58.25 56.88 51.26 42.59 40.17 55.48 51.26 47.28 44.82 63.02 58.95 53.20 51.11 63.26 54.98 46.82 41.55 55.27 47.66

Click on individual weather variable above in left-hand column (ie., TEMP, RH, QPF 12HR) to view state forecast maps






NWS 48 Hr. Forecast Maps,

Regional Hourly Observations For CHRISTIAN County, Kentucky
Issued at 300 PM EDT SUN OCT 22 2017
WESTERN AND SOUTH CENTRAL KENTUCKY
  
CITY           SKY/WX    TMP DP  RH WIND       PRES   REMARKS
PADUCAH        CLOUDY    76  60  57 S8        29.97F                  
HENDERSON      CLOUDY    80  61  52 S18G25    30.00F                  
OWENSBORO      CLOUDY    78  61  55 S21G30    30.02F                  
HOPKINSVILLE   NOT AVBL                                               
BOWLING GREEN  MOSUNNY   81  60  48 S16       30.08F                  
GLASGOW        PTSUNNY   79  58  48 SE9       30.10F                  


Current NOWCAST not available:
Nowcasts are not issued routinely during fair weather. Only when
precipitation or other significant weather is occuring in this county will these
forecasts be issued. Currently, there is no short term forecast in effect.


Fire Weather Forecast For CHRISTIAN County, KY
Provided by the National Weather Service:

Issued at: Sun Oct 22 15:05:01 EDT 2017

Precip Type           tstms        showers      showers      
Chance Precip (%)     80           90           80           
High Temperature(F)   74-78                     61-65        
Minimum RH(%)         57-62                     59-64        
Low Temperature(F)                 53-57                     
Maximum RH(%)                      95-100                    
Temp (24h Trend)      78 (0)       54 (-5)      64           
RH % (24h Trend)      60 (+15)     100 (+13)    62           
20FTWND-AM(MPH)       S 11-15 G28               NW 6-10      
20FTWND-PM(MPH)       S 10-14 G28  SW 4-8       NW 8-12      
Precip Amount         0.15         1.19         0.58         
Precip Duration       3            11           6            
Precip Begin          7 AM         Continuing   Continuing   
Precip End            Continuing   Continuing   Continuing   
1700'Mix Hgt Temp     72                        60           
Mixing Hgt(FT-AGL)    4322                      3588         
Transport Wind (KTS)  S 21                      W 10         
Transport Wind (M/S)  S 11                      W  5         
Vent Rate (M/S-M)     14487                     5470         
Dispersion Index      Good                      Fair         
LAL                   3            1            1            
Haines Index          2            2            3            
Stability(DSI)        SLGT UNSTBL  SLGT UNSTBL  STBL         

Remarks...None.

.Forecast for days 3 through 7...

.MONDAY NIGHT...Partly cloudy with a 20 percent chance of rain
showers. Lows in the mid 40s. West winds 5 to 10 mph. 
.TUESDAY...Mostly sunny. Highs in the upper 50s. West winds 10 to
15 mph with gusts to around 30 mph. 
.TUESDAY NIGHT...Partly cloudy. Lows in the upper 30s. West winds
5 to 10 mph. 
.WEDNESDAY...Mostly sunny. Highs in the upper 50s. West winds
5 to 15 mph. 
.WEDNESDAY NIGHT...Mostly clear. Lows in the lower 40s. Southwest
winds 5 to 10 mph. 
.THURSDAY...Sunny. Highs in the mid 60s. South winds 5 to 15 mph.
.THURSDAY NIGHT...Mostly clear. Lows around 50. South winds 10 to
15 mph. 
.FRIDAY...Partly sunny with a 50 percent chance of rain showers.
Highs in the mid 60s. Southwest winds 5 to 15 mph. 
.FRIDAY NIGHT...Mostly cloudy with a 40 percent chance of rain
showers. Colder. Lows around 40. West winds 5 to 10 mph. 
.SATURDAY...Partly sunny with a 40 percent chance of rain
showers. Cooler. Highs in the mid 50s. Northwest winds 5 to
10 mph. 

SPC's Fire Weather Web Tool (Excellent!), SPC's Fire Weather Outlooks, NWS Fire Weather WEB, Fire Danger Class Map,
Keetch-Byram Drought Index, ROMAN Web, Haines Index ,
WFAS's 10-hr Dead Fuel Moist., WFAS's 100-hr Dead Fuel Moist., Probablity of Ignition, Visual blackness Map, Palmer Drought Index, HPC's Rainfall Forecast Maps


Hazardous Weather Outlook For CHRISTIAN County, Kentucky
1032 AM CDT Sun Oct 22 2017

 DAY ONE  Today and Tonight

There is a slight chance for thunderstorms today. Severe storms are 
not anticipated.

 DAYS TWO THROUGH SEVEN  Monday through Saturday

No hazardous weather is expected at this time.

 SPOTTER INFORMATION STATEMENT  

Spotter activation is not anticipated.

Latest CHRISTIAN County, Kentucky Watches, Warnings and Advisories.
Additional Drought Info.: UKAWC Drought Page, Kentucky Drought Watch


7-Day Forecast For CHRISTIAN County, KY

TODAY
Partly sunny late in the morning then becoming cloudy. A chance of showers and isolated thunderstorms in the afternoon. Highs in the upper 70s. South winds around 15 mph with gusts to around 30 mph. Chance of precipitation 50 percent.

TONIGHT
Showers. Lows in the mid 50s. South winds around 5 mph in the evening shifting to the west after midnight. Chance of precipitation 90 percent.

MONDAY
Mostly cloudy. Showers likely in the morning, then a chance of showers in the afternoon. Highs in the lower 60s. Northwest winds around 10 mph. Chance of precipitation 70 percent.

MONDAY NIGHT
Partly cloudy with a 20 percent chance of showers. Lows in the mid 40s. West winds 5 to 10 mph.

TUESDAY
Partly sunny. Highs in the upper 50s. West winds 10 to 15 mph with gusts to around 30 mph.

TUESDAY NIGHT
Partly cloudy. Lows in the upper 30s.

WEDNESDAY
Mostly sunny. Highs in the upper 50s.

WEDNESDAY NIGHT
Mostly clear. Lows in the lower 40s.

THURSDAY
Sunny. Highs in the mid 60s.

THURSDAY NIGHT
Mostly clear. Lows around 50.

FRIDAY
Partly sunny with a 50 percent chance of showers. Highs in the mid 60s.

FRIDAY NIGHT
Mostly cloudy with a 50 percent chance of rain showers. Lows around 40.

SATURDAY
Partly sunny with a 40 percent chance of rain showers. Highs in the mid 50s.

Ag Weather Center, Department of Biosystems & Agricultural Engineering, University of Kentucky